Weather in Skive

Denmark     56°33′50″N   9°01′47″E
temp.,
°C
wind,
m/s
gust,
m/s
humid.,
%
clouds,
%
prec.,
mm/h
press.,
hPa
HPBL,
m
8 march, mon
mon801:000n125233 0.0 102322
04:000nne115515 0.0 102321
07:000ese015740 0.0 102322
10:00+3se224861 0.0 1024324
13:00+5sse223669 0.0 10241160
16:00+5s333326 0.0 10231416
19:00+1sw224923 0.0 102222
22:000sse225616 0.0 102138
9 march, tue
tue901:00−1sse38588 0.0 1020232
04:00−1ssw24600 0.0 1019138
07:00−1s22650 0.0 101840
10:00+2s34625 0.0 1019553
13:00+3ssw226331 0.0 1019858
16:00+3sw2266100 0.0 1018772
19:00+2s1170100 0.0 101822
22:00+1se227283 0.0 101922
10 march, wed
wed1001:000se347960 0.0 101876
04:00−1ese37800 0.0 1017158
07:00−1sse49750 0.0 1016244
10:00+3sse7117099 0.0 1015858
13:00+5s81367100 0.0 1013975
16:00+3s81497100 1.8 1010680
19:00+3s101696100 3.6 1006762
22:00+4s91793100 1.8 1003687
11 march, thu
thu1101:00+5s101892100 5.4 998786
04:00+5s111893100 6.1 992781
07:00+6ssw101893100 15.8 987809
10:00+8sw101681100 2.5 9851031
13:00+7sw121883100 3.1 9831288
16:00+6sw132177100 0.6 9811396
19:00+5w142289100 2.5 9821330
22:00+6wsw111873100 0.1 9861213
12 march, fri
fri1201:00+4wsw9167483 0.1 9891026
04:00+3wsw9177727 0.1 9901085
07:00+4wsw10187763 0.6 9911313
10:00+5wsw111772100 0.5 9931507
13:00+5wsw101574100 0.7 9951431
16:00+5sw9137699 0.2 9951241
19:00+4sw9148299 1.4 9931119
22:00+3ssw7148579 0.0 992680